Orbital Elements at Epoch 2459200.5 (2020-Dec-17.0) TDB
Reference: JPL 20 (heliocentric ecliptic J2000)
Element | Value | Uncertainty (1-sigma) | Units |
e | .02346680964854245 | 3.8442e-08 | |
a | 2.692988815328454 | 1.6824e-08 | au |
q | 2.629792959413487 | 1.02e-07 | au |
i | 4.071216121941196 | 4.8975e-06 | deg |
node | 48.723267674186 | 6.5558e-05 | deg |
peri | 69.08184353131021 | 0.00013506 | deg |
M | 94.56959844308901 | 0.00011707 | deg |
tp | 2458776.467352389929 (2019-Oct-19.96735239) | 0.00052505 | TDB |
period | 1614.173641981677 4.42 | 1.5127e-05 4.142e-08 | d yr |
n | .2230243330934569 | 2.09e-09 | deg/d |
Q | 2.756184671243421 | 1.7219e-08 | au |
|
| | Orbit Determination Parameters
Additional Information
|